• In United Kingdom
  • List of Countries
  • For 7 days
  • Water Temperature
  • Satellite Maps
  • Weather Map
  • Weather Widgets
  • user-avatar
    Login

    Hourly Weather Quito

    Today, 22 November, Wednesday

    Time Temperature Precipitation Wind Pressure Humidity
    00:00 +18°C° 0.8 mm 1 mps 621 mmHg 93%
    01:00 +16°C° 0.8 mm 1 mps 621 mmHg 93%
    02:00 +16°C° 1.1 mm 1 mps 621 mmHg 94%
    03:00 +16°C° 1.1 mm 1 mps 621 mmHg 95%
    04:00 +16°C° 1.1 mm 1 mps 621 mmHg 96%
    05:00 +16°C° 1.5 mm 1 mps 622 mmHg 95%
    06:00 +18°C° 1.5 mm 1 mps 622 mmHg 95%
    07:00 +17°C° 1.5 mm 2 mps 623 mmHg 94%
    08:00 +17°C° 1.4 mm 2 mps 623 mmHg 92%
    09:00 +18°C° 1.4 mm 2 mps 623 mmHg 90%
    10:00 +19°C° 1.4 mm 2 mps 623 mmHg 88%
    11:00 +20°C° 0.4 mm 2 mps 623 mmHg 83%
    12:00 +21°C° 0.4 mm 2 mps 623 mmHg 77%
    13:00 +23°C° 0.4 mm 2 mps 623 mmHg 72%
    14:00 +23°C° 0.2 mm 2 mps 622 mmHg 73%
    15:00 +21°C° 0.2 mm 2 mps 622 mmHg 75%
    16:00 +21°C° 0.2 mm 2 mps 621 mmHg 76%
    17:00 +21°C° 0.6 mm 1 mps 621 mmHg 81%
    18:00 +20°C° 0.6 mm 1 mps 621 mmHg 85%
    19:00 +17°C° 0.6 mm 0 mps 621 mmHg 89%
    20:00 +18°C° 1.4 mm 1 mps 621 mmHg 91%
    21:00 +18°C° 1.4 mm 1 mps 622 mmHg 92%
    22:00 +18°C° 1.4 mm 1 mps 622 mmHg 94%
    23:00 +18°C° 0.9 mm 1 mps 622 mmHg 94%

    Tomorrow, 23 November, Thursday

    Time Temperature Precipitation Wind Pressure Humidity
    00:00 +16°C° 0.9 mm 1 mps 621 mmHg 95%
    01:00 +16°C° 0.9 mm 1 mps 621 mmHg 95%
    02:00 +16°C° 0.7 mm 1 mps 621 mmHg 95%
    03:00 +16°C° 0.7 mm 1 mps 621 mmHg 95%
    04:00 +15°C° 0.7 mm 0 mps 621 mmHg 94%
    05:00 +16°C° 0.4 mm 1 mps 621 mmHg 94%
    06:00 +18°C° 0.4 mm 1 mps 621 mmHg 93%
    07:00 +18°C° 0.4 mm 1 mps 622 mmHg 92%
    08:00 +19°C° 0.3 mm 1 mps 622 mmHg 87%
    09:00 +20°C° 0.3 mm 1 mps 623 mmHg 83%
    10:00 +21°C° 0.3 mm 1 mps 623 mmHg 78%
    11:00 +21°C° 0.5 mm 1 mps 623 mmHg 76%
    12:00 +22°C° 0.5 mm 1 mps 622 mmHg 73%
    13:00 +23°C° 0.5 mm 1 mps 622 mmHg 71%
    14:00 +22°C° 0.6 mm 1 mps 622 mmHg 76%
    15:00 +21°C° 0.6 mm 1 mps 621 mmHg 80%
    16:00 +20°C° 0.6 mm 1 mps 621 mmHg 85%
    17:00 +20°C° 0.2 mm 1 mps 621 mmHg 87%
    18:00 +19°C° 0.2 mm 1 mps 621 mmHg 89%
    19:00 +18°C° 0.2 mm 1 mps 621 mmHg 90%
    20:00 +16°C° 0 mm 0 mps 622 mmHg 90%
    21:00 +15°C° 0 mm 0 mps 622 mmHg 90%
    22:00 +15°C° 0 mm 0 mps 622 mmHg 89%
    23:00 +15°C° 0.1 mm 0 mps 622 mmHg 90%

    Day after tomorrow, 24 November, Friday

    Time Temperature Precipitation Wind Pressure Humidity
    00:00 +15°C° 0.1 mm 0 mps 621 mmHg 91%
    01:00 +15°C° 0.1 mm 0 mps 621 mmHg 92%
    02:00 +14°C° 0.2 mm 0 mps 621 mmHg 92%
    03:00 +14°C° 0.2 mm 0 mps 621 mmHg 93%
    04:00 +15°C° 0.2 mm 1 mps 621 mmHg 93%
    05:00 +15°C° 0.3 mm 0 mps 621 mmHg 93%
    06:00 +15°C° 0.3 mm 0 mps 622 mmHg 92%
    07:00 +15°C° 0.3 mm 0 mps 622 mmHg 91%
    08:00 +17°C° 0.2 mm 0 mps 623 mmHg 87%
    09:00 +20°C° 0.2 mm 1 mps 623 mmHg 83%
    10:00 +21°C° 0.2 mm 1 mps 624 mmHg 79%
    11:00 +22°C° 0.3 mm 1 mps 623 mmHg 76%
    12:00 +22°C° 0.3 mm 1 mps 623 mmHg 73%
    13:00 +23°C° 0.3 mm 1 mps 623 mmHg 70%
    14:00 +22°C° 0.5 mm 1 mps 622 mmHg 73%
    15:00 +22°C° 0.5 mm 1 mps 621 mmHg 77%
    16:00 +21°C° 0.5 mm 1 mps 621 mmHg 80%
    17:00 +20°C° 0.4 mm 1 mps 621 mmHg 84%
    18:00 +19°C° 0.4 mm 1 mps 621 mmHg 87%
    19:00 +18°C° 0.4 mm 1 mps 621 mmHg 91%
    20:00 +18°C° 0.1 mm 1 mps 622 mmHg 91%
    21:00 +16°C° 0.1 mm 0 mps 622 mmHg 91%
    22:00 +15°C° 0.1 mm 0 mps 622 mmHg 91%
    23:00 +15°C° 0 mm 0 mps 622 mmHg 91%

    25 November, Saturday

    Time Temperature Precipitation Wind Pressure Humidity
    00:00 +15°C° 0 mm 0 mps 621 mmHg 92%
    01:00 +15°C° 0 mm 0 mps 621 mmHg 92%
    02:00 +14°C° 0.1 mm 0 mps 621 mmHg 93%
    03:00 +14°C° 0.1 mm 0 mps 621 mmHg 93%
    04:00 +14°C° 0.1 mm 0 mps 621 mmHg 94%
    05:00 +15°C° 0 mm 0 mps 621 mmHg 92%
    06:00 +16°C° 0 mm 0 mps 622 mmHg 90%
    07:00 +17°C° 0 mm 0 mps 623 mmHg 87%
    08:00 +18°C° 0.1 mm 0 mps 623 mmHg 81%
    09:00 +22°C° 0.1 mm 1 mps 623 mmHg 75%
    10:00 +23°C° 0.1 mm 1 mps 624 mmHg 69%
    11:00 +24°C° 0.5 mm 1 mps 623 mmHg 69%
    12:00 +24°C° 0.5 mm 2 mps 623 mmHg 69%
    13:00 +24°C° 0.5 mm 2 mps 622 mmHg 69%
    14:00 +24°C° 0.8 mm 1 mps 622 mmHg 73%
    15:00 +23°C° 0.8 mm 1 mps 621 mmHg 76%
    16:00 +23°C° 0.8 mm 1 mps 621 mmHg 79%
    17:00 +21°C° 1 mm 1 mps 621 mmHg 83%
    18:00 +20°C° 1 mm 1 mps 621 mmHg 88%
    19:00 +19°C° 1 mm 1 mps 621 mmHg 92%
    20:00 +18°C° 0.3 mm 1 mps 621 mmHg 92%
    21:00 +18°C° 0.3 mm 1 mps 622 mmHg 93%
    22:00 +18°C° 0.3 mm 1 mps 622 mmHg 94%
    23:00 +16°C° 0.3 mm 1 mps 621 mmHg 94%

    26 November, Sunday

    Time Temperature Precipitation Wind Pressure Humidity
    00:00 +16°C° 0.3 mm 1 mps 621 mmHg 95%
    01:00 +16°C° 0.3 mm 1 mps 621 mmHg 96%
    02:00 +16°C° 0.3 mm 1 mps 620 mmHg 96%
    03:00 +16°C° 0.3 mm 1 mps 620 mmHg 96%
    04:00 +15°C° 0.3 mm 0 mps 620 mmHg 96%
    05:00 +15°C° 0.3 mm 0 mps 621 mmHg 94%
    06:00 +16°C° 0.3 mm 0 mps 622 mmHg 93%
    07:00 +17°C° 0.3 mm 0 mps 622 mmHg 91%
    08:00 +20°C° 0.7 mm 1 mps 623 mmHg 88%
    09:00 +21°C° 0.7 mm 1 mps 623 mmHg 84%
    10:00 +21°C° 0.7 mm 2 mps 624 mmHg 81%
    11:00 +21°C° 1 mm 2 mps 623 mmHg 82%
    12:00 +21°C° 1 mm 2 mps 623 mmHg 83%
    13:00 +20°C° 1 mm 2 mps 622 mmHg 85%
    14:00 +20°C° 1.3 mm 2 mps 622 mmHg 87%
    15:00 +19°C° 1.3 mm 2 mps 621 mmHg 89%
    16:00 +18°C° 1.3 mm 2 mps 621 mmHg 92%
    17:00 +18°C° 0.6 mm 2 mps 621 mmHg 93%
    18:00 +17°C° 0.6 mm 2 mps 622 mmHg 95%
    19:00 +18°C° 0.6 mm 1 mps 622 mmHg 97%
    20:00 +16°C° 0 mm 1 mps 622 mmHg 97%
    21:00 +16°C° 0 mm 1 mps 622 mmHg 97%
    22:00 +16°C° 0 mm 2 mps 623 mmHg 98%
    23:00 +16°C° 0 mm 2 mps 622 mmHg 98%

    27 November, Monday

    Time Temperature Precipitation Wind Pressure Humidity
    00:00 +16°C° 0 mm 2 mps 622 mmHg 98%
    01:00 +15°C° 0 mm 2 mps 622 mmHg 97%
    02:00 +15°C° 0.1 mm 2 mps 622 mmHg 97%
    03:00 +15°C° 0.1 mm 2 mps 622 mmHg 97%
    04:00 +15°C° 0.1 mm 2 mps 621 mmHg 97%
    05:00 +15°C° 0.1 mm 2 mps 622 mmHg 96%
    06:00 +16°C° 0.1 mm 2 mps 623 mmHg 95%
    07:00 +16°C° 0.1 mm 2 mps 623 mmHg 93%
    08:00 +17°C° 0.1 mm 2 mps 623 mmHg 90%
    09:00 +18°C° 0.1 mm 2 mps 624 mmHg 87%
    10:00 +18°C° 0.1 mm 2 mps 624 mmHg 84%
    11:00 +19°C° 0.2 mm 2 mps 623 mmHg 80%
    12:00 +20°C° 0.2 mm 2 mps 623 mmHg 76%
    13:00 +21°C° 0.2 mm 2 mps 623 mmHg 73%
    14:00 +23°C° 0.3 mm 2 mps 622 mmHg 72%
    15:00 +23°C° 0.3 mm 2 mps 622 mmHg 72%
    16:00 +23°C° 0.3 mm 2 mps 622 mmHg 71%
    17:00 +22°C° 0.7 mm 1 mps 622 mmHg 78%
    18:00 +20°C° 0.7 mm 1 mps 622 mmHg 84%
    19:00 +18°C° 0.7 mm 1 mps 622 mmHg 90%
    20:00 +18°C° 0 mm 1 mps 622 mmHg 91%
    21:00 +16°C° 0 mm 1 mps 622 mmHg 92%
    22:00 +16°C° 0 mm 1 mps 622 mmHg 92%
    23:00 +16°C° 0 mm 1 mps 622 mmHg 93%
    Show more